CZ-6A DEB, 54491

Orbit data source: Space-Track

CZ-6A DEB, 54491 is space debris in SSO originally from a launch on Fri, 11 Nov 2022 UTC launched from the Taiyaun Space Center, China (TSC). Debris objects in space refer to the collection of defunct objects orbiting the Earth. Examples of debris include non-operational satellites, rocket bodies, and fragments generated from explosions, collisions, or faulty payload assembly.

Loading next visibility...
Identifier
54491, 2022-151HT
Orbit
SSO
Country
Flag of CNCN / PRC
Related business
Manufacturer
SAST
Mission
Spacecraft
Bus & Motor
Unknown
Mass
Unknown
Launch date (UTC)
2022-11-11 (4 years ago)
Launch vehicle
Unknown
Launch site
Taiyaun Space Center, China (TSC)
Object type
Payload
Rocket body
Debris
Shape & HBR
Unknown shape, 0.2 m
Radar Cross Section
Medium (>0.1 m² and <1 m²)

Expand to show TLE details & history
Last TLE update: 11 hours ago

TLE from 11 hours ago
0 CZ-6A DEB
1 54491U 22151HT  26236.48638849  .00000032  00000-0  41840-4 0  9999
2 54491  98.9126 243.8484 0109335 102.5683 258.7741 14.07854387193733
Epoch: 2026-08-24T11:40Z
TLE epoch observation values (Epoch: 2026-08-24T11:40:23.965Z)
Latitude
0.00004°
Longitude
95.98114°
Altitude
885.87 km
Speed
7.401 km/s
True Right ascension
16h 15m 23s
True Declination
0° 00' 00"
Sunlit
Object was in daylight at epoch
Visualization orbit readout
Latitude
Unknown
Longitude
Unknown
Altitude
Unknown
Speed
Unknown
Apparent Right ascension
Unknown
Apparent Declination
Unknown
Sunlit
N/A
Visualization observer readout
Local Sidereal Time
13:48:22
Azimuth
Unknown
Elevation
Unknown
Doppler factor
Unknown
Orbital elements
Apogee altitude
943.088 km
Perigee altitude
784.727 km
Semi-major axis
7,242.044 km
Eccentricity
0.01093
Inclination
98.9126°
RAAN
243.8484°
Arg. of periapsis
102.5683°
True anomaly
257.54854°
Mean anomaly
258.7741°
Eccentric anomaly
258.16098°
Mean motion
3.52169 °/min
Orbital period
102.22 mins
BSTAR
0.00004184
Loading maneuver chart data...
Computing Atmospheric mass density...
Loading historical data...
Loading historical data...
Loading historical data...
Loading historical data...
Loading historical data...
Loading historical data...
Loading historical data...

Documentation

Showing up to 5 results
|